Location: Arbon
(43.0005°N, 0.7472°E)
Time: 09:39:03
(UTC+00:00)

Vanguard 2 Rocket - Pass Details

Date: 05 December 2020
Orbit: 554 x 3325 km, 32.9° (Epoch: 21 January)

Event Time Altitude Azimuth Distance (km) Brightness Sun altitude
Rises 09:08:29 0° 266° (W) 7,085 11.1 15.0°
Reaches altitude 10° 09:13:09 10° 263° (W) 6,204 10.9 15.5°
Maximum altitude 09:32:49 59° 192° (SSW) 3,455 10.5 17.6°
Drops below altitude 10° 09:48:14 10° 118° (ESE) 4,998 11.8 19.0°
Sets 09:51:32 0° 114° (ESE) 5,694 11.8 19.3°
